SCP
0 0 0 0 0 0 0 0 0 0 0 0 0 0 0 0 0 0 0 0 0 0 0 0 0 0 0 1 0 0 0 0 0 -0 0 -0 0 0 0 0 -0 -0 -0
0 0 0 0 0 0 0 0 0 0 0 0 0 0 0 0 0 0 0 0 0 0 0 0 0 0 0 0 0 0 0 0 0 -0 -0 0 0 0 0 0 -0 -0 -0
0 0 0 0 0 0 0 0 0 0 0 0 0 0 0 0 0 0 0 0 0 0 0 0 0 0 0 0 0 0 0 0 0 -0 -0 -0 -0 0 0 0 -0 -0 -0
0 0 0 0 0 0 0 0 0 0 0 0 0 0 0 0 0 0 0 0 0 0 0 0 0 0 0 0 0 0 0 0 -0 -0 -0 -0 -0 0 -0 -0 -0 -0 -0
0 0 0 0 0 0 0 0 0 0 0 0 0 0 0 0 0 0 0 0 0 0 0 0 0 0 0 0 0 0 0 0 -0 -0 -0 -0 0 0 -0 -0 -0 -0 -0
0 0 0 0 0 0 0 0 0 0 0 0 0 0 0 0 0 0 0 0 0 0 0 0 0 0 0 0 0 -0 -0 -0 -0 -0 -0 -0 0 0 -0 -0 -0 -0 -0
0 0 0 0 0 0 0 0 0 0 0 0 0 0 0 0 0 0 0 0 0 0 0 0 0 0 0 0 0 -0 -0 -0 -0 0 -0 -0 0 0 -0 -0 -0 -0 -0
0 0 0 0 0 0 0 0 0 0 0 0 0 0 0 0 0 0 0 0 0 0 0 0 0 0 0 0 0 0 0 0 0 0 0 -0 0 0 0 -0 -0 -0 -0
0 0 0 0 0 0 0 0 0 0 0 0 0 0 0 0 0 0 0 0 0 0 0 0 0 0 0 0 0 0 0 0 0 0 0 0 0 0 0 -0 -0 -0 -0
0 0 0 0 0 0 0 0 0 0 0 0 0 0 0 0 0 0 0 0 0 0 0 0 0 0 0 -0 0 0 0 0 0 0 0 0 0 0 0 -0 -0 0 -0
0 0 0 0 0 0 0 0 0 0 0 0 0 0 0 0 0 0 0 0 0 0 0 0 0 0 -0 -0 -0 0 0 0 0 0 0 -0 -0 -0 -0 -0 -0 -0 -0
0 0 0 0 0 0 0 0 0 0 0 0 0 0 0 0 0 0 0 0 0 0 0 0 0 0 -0 -0 0 0 0 0 0 0 0 -0 -0 -0 -0 -0 -0 -0 0
0 0 0 0 0 0 0 0 0 0 0 0 0 0 0 0 0 -0 0 0 0 0 0 0 0 0 0 0 0 -0 0 -0 -0 0 0 0 0 -0 -0 -0 -0 -0 0
0 0 0 0 0 0 0 0 0 0 0 0 0 0 0 0 0 0 0 0 0 0 0 0 0 0 0 0 0 0 0 0 0 -0 0 0 0 -0 -0 0 0 -0 -0
0 0 0 0 0 0 0 0 0 0 0 0 0 0 0 0 0 0 0 0 0 -0 0 0 0 0 0 0 0 0 0 -0 0 0 0 0 0 0 0 0 0 0 -0
0 0 0 0 0 0 0 0 0 0 0 0 0 0 0 0 0 0 0 0 -0 -0 -0 0 0 0 0 0 0 0 0 0 0 0 0 0 0 0 0 0 0 -0 -0
0 0 0 0 0 0 0 0 0 0 0 0 0 0 0 0 0 0 0 0 -0 -0 -0 0 0 0 0 -0 0 0 0 0 0 -0 -0 0 0 0 0 0 0 -0 0
0 0 0 0 0 0 0 0 0 0 0 0 0 0 0 0 0 0 0 0 0 0 -0 0 0 0 -0 -0 -0 0 0 0 0 -0 -0 -0 0 0 0 0 0 0 0
0 0 0 0 0 0 0 0 0 0 0 0 0 0 0 0 0 0 0 0 -0 -0 -0 0 0 0 -0 -0 -0 -0 0 0 0 0 0 0 0 0 0 0 0 0 0
0 0 0 0 0 0 0 0 0 0 0 0 0 0 0 0 0 0 0 0 -0 -0 -0 -0 0 0 -0 -0 -0 -0 -0 0 0 0 0 0 0 0 0 0 0 0 0
0 0 0 0 0 0 0 0 0 0 0 0 0 0 0 0 0 0 0 -0 -0 -0 -0 0 0 0 -0 -0 -0 -0 -0 0 0 0 0 0 0 0 0 0 0 0 0
0 0 0 0 0 0 0 0 0 0 0 0 0 0 0 0 0 0 -0 -0 -0 -0 -0 -0 0 0 -0 -0 -0 -0 -0 0 0 0 0 0 0 0 0 0 0 0 0
0 0 0 0 0 0 0 0 0 0 0 0 0 0 0 0 0 0 -0 -0 -0 -0 -0 -0 0 -0 -0 -0 -0 -0 -0 0 0 0 0 0 0 0 0 0 0 0 0
0 0 0 0 0 0 0 0 0 0 0 0 0 0 0 0 0 0 -0 -0 -0 -0 -0 -0 0 -0 -0 -0 -0 -0 -0 0 0 0 0 0 0 0 0 0 0 0 0
0 0 0 0 0 0 0 0 0 0 0 0 0 0 0 0 0 0 -0 -0 -0 -0 0 0 0 -0 -0 -0 -0 -0 -0 -0 -0 0 0 0 0 0 0 0 0 0 0
0 0 0 0 0 0 0 0 0 0 0 0 0 0 0 0 0 0 -0 -0 0 0 0 0 0 -0 -0 -0 -0 -0 -0 -0 -0 0 0 0 0 0 0 0 0 0 0
Wind_Speed_500mb
88 77 67 57 50 43 40 41 46 51 57 63 69 73 75 74 72 73 76 79 79 82 78 77 87 81 87 89 87 94 92 93 104 116 91 83 92 98 83 82 92 92 116
89 78 67 58 48 41 40 42 47 52 56 64 70 72 72 72 73 76 79 79 80 83 80 75 84 81 85 86 87 91 93 93 93 95 86 110 102 81 87 81 80 78 105
89 77 66 55 46 41 41 41 46 51 56 62 67 69 71 74 75 77 78 81 81 80 77 77 83 80 85 85 82 86 86 88 89 88 98 77 93 91 75 73 82 90 97
88 76 63 53 45 40 39 38 42 48 56 60 62 67 71 74 76 77 78 79 78 75 77 85 88 83 84 83 83 85 85 86 81 83 85 83 94 80 59 58 67 70 83
85 73 60 51 43 38 37 37 39 46 52 57 63 67 69 73 76 79 79 74 74 81 84 85 83 84 81 82 86 90 86 84 82 74 73 79 82 63 54 57 51 46 51
82 67 57 46 39 36 35 35 38 44 49 55 62 69 73 77 80 80 69 73 74 79 92 92 82 88 82 78 83 86 87 91 90 83 79 72 76 61 49 50 60 72 67
77 65 54 44 39 34 34 33 37 43 47 53 60 68 73 75 75 78 66 71 78 85 89 95 94 90 84 83 78 77 80 83 87 92 91 86 79 58 50 57 56 57 74
77 62 52 42 36 33 29 31 33 42 48 53 59 63 70 70 73 74 67 76 81 80 84 91 91 90 83 77 79 81 87 94 87 84 95 97 88 87 62 67 62 59 68
74 61 50 40 34 29 26 28 35 43 47 51 58 65 68 66 71 64 67 81 80 92 90 90 87 85 81 80 82 89 84 83 87 80 79 81 72 76 64 55 64 61 74
68 55 45 36 29 23 22 27 35 43 47 51 56 61 62 70 71 61 66 75 91 93 93 89 84 84 78 74 74 79 87 89 88 82 78 75 72 77 84 76 79 76 74
62 49 40 32 24 17 20 27 35 40 46 50 56 57 61 62 71 61 64 78 87 96 96 97 87 79 76 74 72 74 78 72 76 69 76 69 70 85 86 85 89 83 82
57 46 36 28 19 13 15 25 34 39 44 50 53 53 54 61 64 63 70 75 81 91 92 88 87 83 79 72 70 70 68 68 70 76 69 69 67 80 97 91 94 94 94
50 40 33 24 16 11 11 19 28 35 42 46 40 47 53 62 68 68 77 81 80 78 75 80 75 70 68 57 58 64 68 71 69 62 79 78 65 72 71 79 82 88 96
46 36 28 22 15 9 11 18 24 28 34 35 37 44 54 63 69 81 88 96 84 76 78 74 59 58 43 34 44 46 46 52 63 74 70 71 68 69 73 77 84 92 92
44 36 31 24 15 9 9 12 18 25 29 28 30 37 49 61 66 69 75 82 73 71 66 64 59 67 59 47 40 37 39 50 43 60 74 72 66 74 72 68 76 76 87
46 40 32 24 16 8 4 9 14 18 23 23 24 28 39 45 55 60 66 65 61 63 66 71 78 66 67 66 62 52 47 43 38 31 51 72 76 78 74 75 70 79 80
48 42 33 26 18 12 8 4 3 12 16 20 26 32 35 43 48 53 58 62 57 70 82 81 71 82 70 73 69 64 56 55 44 40 44 37 61 73 77 80 73 70 77
48 38 33 26 19 14 8 3 4 6 11 15 21 29 34 42 44 50 59 65 77 83 84 84 84 80 84 76 78 75 67 64 53 41 42 51 60 59 67 67 64 68 89
47 39 33 27 22 16 9 5 3 10 16 20 22 20 26 37 43 51 60 70 77 82 83 85 86 86 93 87 92 89 77 82 65 48 38 42 50 56 61 60 60 76 98
47 39 35 30 24 19 12 7 6 9 13 21 28 31 37 41 48 55 62 69 73 80 82 85 88 88 91 87 94 94 83 83 71 54 42 33 31 43 57 60 70 79 102
48 44 37 31 28 22 16 12 9 9 14 20 23 26 31 38 46 51 58 65 71 76 82 85 90 93 95 86 92 91 82 88 80 65 49 36 27 26 47 53 71 91 95
50 44 42 37 29 24 19 15 11 11 14 14 16 21 26 32 38 44 51 59 65 71 75 82 87 93 96 94 100 101 95 103 87 69 55 40 22 15 33 49 54 80 98
50 48 44 39 32 27 22 17 14 12 11 12 14 19 25 31 36 41 46 52 59 67 70 77 83 93 101 100 106 105 100 105 85 67 62 49 28 8 33 46 61 62 84
53 48 45 39 35 30 26 21 16 12 10 10 12 17 24 29 34 39 44 48 52 60 65 71 79 87 99 109 115 106 105 102 88 71 60 51 32 8 26 42 58 66 75
52 49 44 41 37 33 28 24 19 14 9 7 10 15 21 26 31 36 42 46 50 55 59 65 73 80 91 101 114 113 103 106 102 93 73 57 40 18 14 34 48 63 71
51 48 44 41 37 33 29 25 20 14 8 4 7 13 18 24 29 34 40 44 47 51 55 59 66 74 79 86 100 116 110 105 105 104 95 73 58 43 20 13 33 44 56
Wind_Direction_500mb
225 228 234 240 248 260 274 284 289 295 302 306 307 308 309 308 305 301 298 295 293 293 287 281 279 277 273 270 266 265 260 258 267 273 268 275 263 260 260 259 267 257 252
224 227 231 238 248 261 272 281 290 298 305 308 308 310 310 310 309 306 303 300 297 294 290 283 280 280 274 271 269 264 263 264 264 272 275 265 264 271 256 258 262 260 259
221 224 229 237 246 257 269 282 293 303 307 309 311 312 314 314 311 308 304 302 298 295 291 286 283 281 277 274 270 268 265 266 266 270 268 273 268 274 257 258 269 277 271
219 221 227 234 243 256 269 282 296 303 307 310 314 313 313 313 312 311 307 303 300 295 291 288 286 281 277 276 273 270 269 270 271 270 264 272 263 274 259 267 273 283 270
216 219 224 231 242 256 271 286 296 302 306 310 313 313 315 315 315 313 308 305 300 299 296 292 288 283 278 273 271 271 270 271 273 270 265 268 264 263 257 260 263 276 274
213 216 221 231 243 257 273 285 293 302 307 313 315 318 319 318 318 314 309 304 300 301 302 297 293 289 283 274 270 266 265 267 267 268 268 266 260 277 262 261 271 276 289
210 214 219 228 241 256 271 282 296 305 311 316 317 316 316 318 318 317 308 306 307 303 299 297 295 288 282 279 275 271 268 264 262 263 263 260 264 265 271 272 279 283 270
206 210 218 227 240 256 269 286 303 310 314 319 316 315 315 320 320 321 315 308 305 307 301 298 295 290 284 282 277 275 279 275 273 262 254 255 261 253 266 266 275 281 273
205 206 213 223 240 255 272 294 305 311 316 318 318 318 318 322 329 326 315 312 313 305 305 301 296 291 290 277 275 277 278 272 276 267 261 251 256 249 248 271 271 281 285
202 204 210 220 233 253 281 303 311 315 320 320 318 318 321 334 337 320 320 316 312 309 307 302 296 291 286 281 275 275 274 277 270 269 266 249 248 248 250 252 261 274 284
198 202 210 219 222 253 291 308 313 317 322 321 318 323 336 336 337 325 325 320 316 312 308 305 302 298 288 277 272 271 275 283 275 266 263 260 245 241 241 244 253 264 271
193 199 208 218 228 246 292 310 315 320 323 320 323 333 335 337 337 331 328 324 319 313 311 310 310 305 292 284 273 270 270 277 268 262 262 256 244 246 248 250 255 260 263
192 198 202 209 226 254 296 309 314 323 324 327 333 330 333 341 346 338 335 330 324 320 318 316 316 320 309 278 274 269 267 264 267 260 246 252 245 242 239 249 251 257 263
191 195 201 208 212 249 296 310 320 326 327 339 331 330 337 344 347 341 341 335 331 334 326 330 337 337 333 315 301 297 285 273 263 254 253 255 246 245 244 243 244 251 256
192 193 197 204 204 232 283 314 327 327 338 337 332 336 339 343 345 341 342 340 337 336 333 350 356 352 351 342 326 308 296 279 283 266 246 248 249 253 252 247 250 255 262
190 190 192 194 194 203 256 321 331 335 334 343 344 345 344 341 342 344 346 347 348 351 4 7 358 351 349 347 343 335 329 315 286 260 245 248 251 246 245 253 258 259 247
191 187 186 188 188 185 171 188 343 340 347 352 356 356 358 350 352 353 351 1 4 9 19 14 357 353 346 348 345 342 331 326 313 284 263 246 242 245 251 252 257 248 247
185 182 180 184 186 182 168 119 24 19 28 22 6 0 7 8 5 6 9 10 17 22 22 15 4 352 353 346 346 344 344 337 330 307 279 261 247 246 256 257 256 255 196
182 178 178 179 181 174 163 112 40 28 19 18 23 16 13 17 16 17 20 21 17 18 19 17 13 0 359 354 349 351 356 342 337 324 301 276 258 252 249 250 243 210 182
176 177 179 176 175 166 152 138 85 50 31 20 17 9 20 13 18 20 22 23 21 21 20 19 18 8 1 358 353 351 353 341 341 333 321 299 268 245 238 233 215 190 178
177 176 176 175 170 159 152 137 118 76 50 36 25 19 25 16 21 21 21 23 21 20 19 19 19 16 10 1 354 351 352 345 349 346 340 322 295 241 219 214 195 187 177
176 174 174 172 165 161 154 146 128 90 66 49 34 29 28 23 21 19 21 22 23 21 19 18 19 19 16 9 358 360 358 353 356 350 344 337 318 234 200 212 199 189 184
176 174 171 168 166 162 155 155 132 113 92 68 45 34 31 25 21 17 14 16 20 20 18 19 19 21 22 17 7 11 5 358 0 357 354 353 345 271 190 202 208 196 192
174 173 172 169 168 164 166 156 145 136 111 80 48 32 28 23 19 17 14 12 17 21 20 18 22 22 22 20 12 15 17 9 12 11 12 7 360 341 202 198 208 206 201
175 174 171 173 171 170 169 162 158 150 132 88 51 34 24 18 14 14 13 14 17 18 22 20 21 23 22 21 13 17 19 19 20 22 23 22 20 34 158 188 203 207 205
175 176 175 174 173 174 173 170 168 161 147 102 41 24 19 12 7 8 10 11 14 17 19 19 19 22 24 22 12 15 18 23 24 30 29 28 30 34 45 158 196 199 208
Wind_Speed_850mb
88 77 67 57 50 43 40 41 46 51 57 63 69 73 75 74 72 73 76 79 79 82 78 77 87 81 87 89 87 94 92 93 104 116 91 83 92 98 83 82 92 92 116
89 78 67 58 48 41 40 42 47 52 56 64 70 72 72 72 73 76 79 79 80 83 80 75 84 81 85 86 87 91 93 93 93 95 86 110 102 81 87 81 80 78 105
89 77 66 55 46 41 41 41 46 51 56 62 67 69 71 74 75 77 78 81 81 80 77 77 83 80 85 85 82 86 86 88 89 88 98 77 93 91 75 73 82 90 97
88 76 63 53 45 40 39 38 42 48 56 60 62 67 71 74 76 77 78 79 78 75 77 85 88 83 84 83 83 85 85 86 81 83 85 83 94 80 59 58 67 70 83
85 73 60 51 43 38 37 37 39 46 52 57 63 67 69 73 76 79 79 74 74 81 84 85 83 84 81 82 86 90 86 84 82 74 73 79 82 63 54 57 51 46 51
82 67 57 46 39 36 35 35 38 44 49 55 62 69 73 77 80 80 69 73 74 79 92 92 82 88 82 78 83 86 87 91 90 83 79 72 76 61 49 50 60 72 67
77 65 54 44 39 34 34 33 37 43 47 53 60 68 73 75 75 78 66 71 78 85 89 95 94 90 84 83 78 77 80 83 87 92 91 86 79 58 50 57 56 57 74
77 62 52 42 36 33 29 31 33 42 48 53 59 63 70 70 73 74 67 76 81 80 84 91 91 90 83 77 79 81 87 94 87 84 95 97 88 87 62 67 62 59 68
74 61 50 40 34 29 26 28 35 43 47 51 58 65 68 66 71 64 67 81 80 92 90 90 87 85 81 80 82 89 84 83 87 80 79 81 72 76 64 55 64 61 74
68 55 45 36 29 23 22 27 35 43 47 51 56 61 62 70 71 61 66 75 91 93 93 89 84 84 78 74 74 79 87 89 88 82 78 75 72 77 84 76 79 76 74
62 49 40 32 24 17 20 27 35 40 46 50 56 57 61 62 71 61 64 78 87 96 96 97 87 79 76 74 72 74 78 72 76 69 76 69 70 85 86 85 89 83 82
57 46 36 28 19 13 15 25 34 39 44 50 53 53 54 61 64 63 70 75 81 91 92 88 87 83 79 72 70 70 68 68 70 76 69 69 67 80 97 91 94 94 94
50 40 33 24 16 11 11 19 28 35 42 46 40 47 53 62 68 68 77 81 80 78 75 80 75 70 68 57 58 64 68 71 69 62 79 78 65 72 71 79 82 88 96
46 36 28 22 15 9 11 18 24 28 34 35 37 44 54 63 69 81 88 96 84 76 78 74 59 58 43 34 44 46 46 52 63 74 70 71 68 69 73 77 84 92 92
44 36 31 24 15 9 9 12 18 25 29 28 30 37 49 61 66 69 75 82 73 71 66 64 59 67 59 47 40 37 39 50 43 60 74 72 66 74 72 68 76 76 87
46 40 32 24 16 8 4 9 14 18 23 23 24 28 39 45 55 60 66 65 61 63 66 71 78 66 67 66 62 52 47 43 38 31 51 72 76 78 74 75 70 79 80
48 42 33 26 18 12 8 4 3 12 16 20 26 32 35 43 48 53 58 62 57 70 82 81 71 82 70 73 69 64 56 55 44 40 44 37 61 73 77 80 73 70 77
48 38 33 26 19 14 8 3 4 6 11 15 21 29 34 42 44 50 59 65 77 83 84 84 84 80 84 76 78 75 67 64 53 41 42 51 60 59 67 67 64 68 89
47 39 33 27 22 16 9 5 3 10 16 20 22 20 26 37 43 51 60 70 77 82 83 85 86 86 93 87 92 89 77 82 65 48 38 42 50 56 61 60 60 76 98
47 39 35 30 24 19 12 7 6 9 13 21 28 31 37 41 48 55 62 69 73 80 82 85 88 88 91 87 94 94 83 83 71 54 42 33 31 43 57 60 70 79 102
48 44 37 31 28 22 16 12 9 9 14 20 23 26 31 38 46 51 58 65 71 76 82 85 90 93 95 86 92 91 82 88 80 65 49 36 27 26 47 53 71 91 95
50 44 42 37 29 24 19 15 11 11 14 14 16 21 26 32 38 44 51 59 65 71 75 82 87 93 96 94 100 101 95 103 87 69 55 40 22 15 33 49 54 80 98
50 48 44 39 32 27 22 17 14 12 11 12 14 19 25 31 36 41 46 52 59 67 70 77 83 93 101 100 106 105 100 105 85 67 62 49 28 8 33 46 61 62 84
53 48 45 39 35 30 26 21 16 12 10 10 12 17 24 29 34 39 44 48 52 60 65 71 79 87 99 109 115 106 105 102 88 71 60 51 32 8 26 42 58 66 75
52 49 44 41 37 33 28 24 19 14 9 7 10 15 21 26 31 36 42 46 50 55 59 65 73 80 91 101 114 113 103 106 102 93 73 57 40 18 14 34 48 63 71
51 48 44 41 37 33 29 25 20 14 8 4 7 13 18 24 29 34 40 44 47 51 55 59 66 74 79 86 100 116 110 105 105 104 95 73 58 43 20 13 33 44 56
Wind_Direction_850mb
225 228 234 240 248 260 274 284 289 295 302 306 307 308 309 308 305 301 298 295 293 293 287 281 279 277 273 270 266 265 260 258 267 273 268 275 263 260 260 259 267 257 252
224 227 231 238 248 261 272 281 290 298 305 308 308 310 310 310 309 306 303 300 297 294 290 283 280 280 274 271 269 264 263 264 264 272 275 265 264 271 256 258 262 260 259
221 224 229 237 246 257 269 282 293 303 307 309 311 312 314 314 311 308 304 302 298 295 291 286 283 281 277 274 270 268 265 266 266 270 268 273 268 274 257 258 269 277 271
219 221 227 234 243 256 269 282 296 303 307 310 314 313 313 313 312 311 307 303 300 295 291 288 286 281 277 276 273 270 269 270 271 270 264 272 263 274 259 267 273 283 270
216 219 224 231 242 256 271 286 296 302 306 310 313 313 315 315 315 313 308 305 300 299 296 292 288 283 278 273 271 271 270 271 273 270 265 268 264 263 257 260 263 276 274
213 216 221 231 243 257 273 285 293 302 307 313 315 318 319 318 318 314 309 304 300 301 302 297 293 289 283 274 270 266 265 267 267 268 268 266 260 277 262 261 271 276 289
210 214 219 228 241 256 271 282 296 305 311 316 317 316 316 318 318 317 308 306 307 303 299 297 295 288 282 279 275 271 268 264 262 263 263 260 264 265 271 272 279 283 270
206 210 218 227 240 256 269 286 303 310 314 319 316 315 315 320 320 321 315 308 305 307 301 298 295 290 284 282 277 275 279 275 273 262 254 255 261 253 266 266 275 281 273
205 206 213 223 240 255 272 294 305 311 316 318 318 318 318 322 329 326 315 312 313 305 305 301 296 291 290 277 275 277 278 272 276 267 261 251 256 249 248 271 271 281 285
202 204 210 220 233 253 281 303 311 315 320 320 318 318 321 334 337 320 320 316 312 309 307 302 296 291 286 281 275 275 274 277 270 269 266 249 248 248 250 252 261 274 284
198 202 210 219 222 253 291 308 313 317 322 321 318 323 336 336 337 325 325 320 316 312 308 305 302 298 288 277 272 271 275 283 275 266 263 260 245 241 241 244 253 264 271
193 199 208 218 228 246 292 310 315 320 323 320 323 333 335 337 337 331 328 324 319 313 311 310 310 305 292 284 273 270 270 277 268 262 262 256 244 246 248 250 255 260 263
192 198 202 209 226 254 296 309 314 323 324 327 333 330 333 341 346 338 335 330 324 320 318 316 316 320 309 278 274 269 267 264 267 260 246 252 245 242 239 249 251 257 263
191 195 201 208 212 249 296 310 320 326 327 339 331 330 337 344 347 341 341 335 331 334 326 330 337 337 333 315 301 297 285 273 263 254 253 255 246 245 244 243 244 251 256
192 193 197 204 204 232 283 314 327 327 338 337 332 336 339 343 345 341 342 340 337 336 333 350 356 352 351 342 326 308 296 279 283 266 246 248 249 253 252 247 250 255 262
190 190 192 194 194 203 256 321 331 335 334 343 344 345 344 341 342 344 346 347 348 351 4 7 358 351 349 347 343 335 329 315 286 260 245 248 251 246 245 253 258 259 247
191 187 186 188 188 185 171 188 343 340 347 352 356 356 358 350 352 353 351 1 4 9 19 14 357 353 346 348 345 342 331 326 313 284 263 246 242 245 251 252 257 248 247
185 182 180 184 186 182 168 119 24 19 28 22 6 0 7 8 5 6 9 10 17 22 22 15 4 352 353 346 346 344 344 337 330 307 279 261 247 246 256 257 256 255 196
182 178 178 179 181 174 163 112 40 28 19 18 23 16 13 17 16 17 20 21 17 18 19 17 13 0 359 354 349 351 356 342 337 324 301 276 258 252 249 250 243 210 182
176 177 179 176 175 166 152 138 85 50 31 20 17 9 20 13 18 20 22 23 21 21 20 19 18 8 1 358 353 351 353 341 341 333 321 299 268 245 238 233 215 190 178
177 176 176 175 170 159 152 137 118 76 50 36 25 19 25 16 21 21 21 23 21 20 19 19 19 16 10 1 354 351 352 345 349 346 340 322 295 241 219 214 195 187 177
176 174 174 172 165 161 154 146 128 90 66 49 34 29 28 23 21 19 21 22 23 21 19 18 19 19 16 9 358 360 358 353 356 350 344 337 318 234 200 212 199 189 184
176 174 171 168 166 162 155 155 132 113 92 68 45 34 31 25 21 17 14 16 20 20 18 19 19 21 22 17 7 11 5 358 0 357 354 353 345 271 190 202 208 196 192
174 173 172 169 168 164 166 156 145 136 111 80 48 32 28 23 19 17 14 12 17 21 20 18 22 22 22 20 12 15 17 9 12 11 12 7 360 341 202 198 208 206 201
175 174 171 173 171 170 169 162 158 150 132 88 51 34 24 18 14 14 13 14 17 18 22 20 21 23 22 21 13 17 19 19 20 22 23 22 20 34 158 188 203 207 205
175 176 175 174 173 174 173 170 168 161 147 102 41 24 19 12 7 8 10 11 14 17 19 19 19 22 24 22 12 15 18 23 24 30 29 28 30 34 45 158 196 199 208